Overview Statistics Trail Chart Weather Telemetry Raw packets
 

This is the latest recevied weather packets stored in our database for station/object KE5QKR. If no packets are shown the sender has not sent any weather packets the latest 10 day(s).

<< 2 3 4 5 6 7 8 >>
Time Temp. Humidity Pressure Rain* Wind** Luminosity Snow
1777939057 21.11° C 61% 1012.3 hPa 0 mm - 22 W/m² -
1777938753 21.11° C 60% 1012.4 hPa 0 mm - 24 W/m² -
1777938451 21.11° C 58% 1012.5 hPa 0 mm - 26 W/m² -
1777938148 21.67° C 59% 1012.5 hPa 0 mm - 28 W/m² -
1777937844 21.67° C 58% 1012.6 hPa 0 mm - 33 W/m² -
1777937540 21.67° C 56% 1012.5 hPa 0 mm - 31 W/m² -
1777937237 22.22° C 55% 1012.7 hPa 0 mm - 34 W/m² -
1777936934 22.22° C 55% 1012.7 hPa 0 mm - 35 W/m² -
1777936631 22.22° C 55% 1012.6 hPa 0 mm - 38 W/m² -
1777936331 22.22° C 54% 1012.9 hPa 0 mm - 42 W/m² -
1777936023 22.78° C 55% 1012.7 hPa 0 mm - 54 W/m² -
1777935722 22.78° C 54% 1012.7 hPa 0 mm - 42 W/m² -
1777935420 23.33° C 53% 1013 hPa 0 mm - 74 W/m² -
1777935116 23.33° C 52% 1013 hPa 0 mm - 45 W/m² -
1777934813 23.33° C 51% 1012.8 hPa 0 mm - 96 W/m² -
1777934510 23.89° C 50% 1012.8 hPa 0 mm - 197 W/m² -
1777934207 23.89° C 50% 1013 hPa 0 mm - 207 W/m² -
1777933902 23.89° C 49% 1012.9 hPa 0 mm - 184 W/m² -
1777933600 23.89° C 50% 1013.2 hPa 0 mm - 93 W/m² -
1777933297 23.89° C 50% 1013.1 hPa 0 mm - 64 W/m² -
1777932994 23.89° C 51% 1013 hPa 0 mm - 100 W/m² -
1777932691 23.89° C 47% 1013.3 hPa 0 mm - 142 W/m² -
1777932387 23.89° C 48% 1013.4 hPa 0 mm - 62 W/m² -
1777932085 23.89° C 50% 1013.3 hPa 0 mm - 48 W/m² -
1777931781 24.44° C 49% 1012.9 hPa 0 mm - 49 W/m² -

* Rain latest hour (hover to see other rain measurements)
** Current wind speed in m/s (hover to see current wind gust speed)